1506607200.0,46474,19.19,74750.3,10.23,-33.89,-30.51,0,*4E
1506607201.28,46475,19.19,74750.0,10.23,-34.01,-30.51,0,*48
1506607202.55,46476,19.19,74748.0,10.23,-33.73,-30.33,0,*4D
1506607203.79,46477,19.19,74748.3,10.21,-33.37,-30.17,0,*48
1506607205.01,46478,19.19,74750.3,10.25,-32.85,-29.57,0,*47
1506607206.24,46479,19.19,74750.0,10.25,-32.39,-29.01,0,*42
1506607207.52,46480,19.19,74752.0,10.27,-32.85,-29.51,0,*44
1506607208.77,46481,19.19,74748.5,10.27,-32.91,-29.51,0,*40
1506607210.0,46482,19.19,74750.5,10.29,-32.51,-29.17,0,*43
1506607211.25,46483,19.19,74750.5,10.33,-32.75,-29.39,0,*43
1506607212.51,46484,19.19,74754.0,10.31,-32.79,-29.45,0,*41
1506607213.76,46485,19.19,74750.3,10.33,-33.31,-30.05,0,*43
1506607215.0,46486,19.19,74748.3,10.33,-33.31,-30.05,0,*40
1506607216.25,46487,19.19,74748.3,10.33,-33.31,-30.05,0,*41
1506607217.48,46488,19.19,74750.8,10.33,-32.69,-29.39,0,*45
1506607218.74,46489,19.19,74750.3,10.35,-32.69,-29.51,0,*4C
1506607219.99,46490,19.19,74748.3,10.35,-32.39,-29.35,0,*43
1506607221.25,46491,19.19,74750.8,10.37,-32.45,-29.45,0,*4C
1506607222.48,46492,19.19,74748.5,10.39,-32.63,-29.67,0,*45
1506607223.7,46493,19.19,74748.0,10.39,-32.69,-29.83,0,*44
1506607224.93,46494,19.19,74748.3,10.37,-32.51,-29.83,0,*46
1506607226.21,46495,19.19,74752.0,10.41,-32.63,-30.17,0,*42
1506607227.48,46496,19.19,74748.3,10.45,-32.97,-30.55,0,*48
1506607228.76,46497,19.19,74748.3,10.45,-33.27,-30.95,0,*4F
1506607230.0,46498,19.19,74748.3,10.47,-33.49,-31.29,0,*4C
1506607231.24,46499,19.19,74750.8,10.47,-33.09,-30.83,0,*48
1506607232.48,46500,19.19,74750.5,10.47,-32.79,-30.83,0,*4F
1506607233.74,46501,19.19,74750.5,10.49,-32.91,-30.89,0,*4C
1506607234.99,46502,19.19,74748.0,10.47,-33.61,-31.51,0,*4B
1506607236.25,46503,19.19,74750.0,10.49,-33.27,-31.45,0,*43
1506607237.48,46504,19.19,74748.0,10.49,-33.03,-31.29,0,*48
1506607238.73,46505,19.19,74750.5,10.51,-33.61,-31.85,0,*42
1506607239.94,46506,19.19,74750.8,10.51,-33.03,-31.29,0,*43
1506607241.17,46507,19.19,74752.3,10.53,-33.03,-31.33,0,*4B
1506607242.41,46508,19.19,74748.5,10.53,-32.97,-31.33,0,*48
1506607243.67,46509,19.19,74748.5,10.53,-33.21,-31.39,0,*4F
1506607244.89,46510,19.19,74750.0,10.55,-33.09,-31.33,0,*41
1506607246.15,46511,19.19,74750.8,10.55,-33.31,-31.57,0,*49
1506607247.42,46512,19.19,74750.0,10.57,-33.09,-31.51,0,*45
1506607248.65,46513,19.19,74748.8,10.57,-33.15,-31.45,0,*4C
1506607249.93,46514,19.19,74748.0,10.57,-32.63,-31.11,0,*4A
1506607251.21,46515,19.19,74750.0,10.57,-32.63,-31.11,0,*4B
1506607252.45,46516,19.19,74750.3,10.59,-32.69,-31.11,0,*4C
1506607253.7,46517,19.19,74752.0,10.59,-32.75,-31.39,0,*4A
1506607254.96,46518,19.19,74746.0,10.61,-34.65,-33.15,0,*45
1506607256.23,46519,19.19,74750.5,10.61,-34.83,-33.31,0,*4A
1506607257.43,46520,19.19,74750.5,10.59,-34.89,-33.55,0,*43
1506607258.67,46521,19.19,74748.3,10.59,-35.83,-34.47,0,*4D
1506607259.9,46522,19.19,74748.8,10.59,-35.77,-34.53,0,*40
1506607261.13,46523,19.19,74748.3,10.55,-35.13,-34.01,0,*48
1506607262.36,46524,19.19,74748.8,10.55,-34.95,-33.83,0,*4D
1506607263.58,46525,19.19,74748.3,10.55,-35.13,-33.89,0,*49
1506607264.81,46526,19.19,74746.8,10.55,-34.95,-34.07,0,*44
1506607266.06,46527,19.19,74748.8,10.53,-35.41,-34.47,0,*4F
1506607267.31,46528,19.19,74748.3,10.51,-35.65,-34.65,0,*44
1506607268.53,46529,19.19,74748.0,10.51,-35.59,-34.53,0,*4F
1506607269.74,46530,19.19,74746.0,10.51,-35.47,-34.47,0,*4D
1506607270.97,46531,19.19,74746.5,10.51,-35.77,-34.65,0,*4F
1506607272.21,46532,19.19,74748.8,10.47,-35.83,-34.71,0,*45
1506607273.43,46533,19.19,74748.3,10.47,-35.47,-34.35,0,*4C
1506607274.67,46534,19.19,74750.0,10.45,-35.17,-34.19,0,*42
1506607275.9,46535,19.19,74746.5,10.45,-35.71,-34.71,0,*4D
1506607277.11,46536,19.19,74750.5,10.47,-35.53,-34.41,0,*4F
1506607278.34,46537,19.19,74748.0,10.41,-35.77,-34.77,0,*4B
1506607279.59,46538,19.19,74748.3,10.41,-35.17,-33.89,0,*44
1506607280.87,46539,19.19,74748.3,10.41,-34.83,-33.73,0,*4C
1506607282.11,46540,19.19,74750.3,10.41,-34.77,-33.37,0,*49
1506607283.34,46541,19.19,74748.5,10.41,-34.59,-33.15,0,*44
1506607284.56,46542,19.19,74748.3,10.41,-35.13,-33.67,0,*4D
1506607285.84,46543,19.19,74750.0,10.41,-35.35,-33.89,0,*48
1506607287.09,46544,19.19,74748.0,10.41,-36.07,-34.65,0,*48
1506607288.38,46545,19.19,74748.8,10.37,-36.91,-35.41,0,*40
1506607289.6,46546,19.19,74750.3,10.35,-36.67,-35.13,0,*4F
1506607290.86,46547,19.19,74750.8,10.35,-36.25,-34.77,0,*4B
1506607292.11,46548,19.19,74748.8,10.35,-36.07,-34.53,0,*42
1506607293.33,46549,19.19,74748.8,10.31,-35.59,-34.25,0,*4E
1506607294.6,46550,19.19,74748.8,10.35,-35.23,-33.77,0,*4F
1506607295.83,46551,19.19,74744.8,10.37,-35.47,-33.95,0,*42
1506607297.05,46552,19.19,74748.5,10.33,-35.71,-34.19,0,*43
1506607298.29,46553,19.19,74748.8,10.31,-35.59,-34.19,0,*4A
1506607299.54,46554,19.19,74750.3,10.29,-35.23,-33.77,0,*46
1506607300.83,46555,19.19,74748.3,10.31,-34.83,-33.31,0,*47
1506607302.08,46556,19.25,74750.0,10.31,-34.83,-33.21,0,*45
1506607303.34,46557,19.19,74744.0,10.31,-34.31,-32.91,0,*47
1506607304.55,46558,19.19,74748.0,10.33,-33.95,-32.51,0,*4F
1506607305.75,46559,19.19,74750.5,10.33,-33.95,-32.69,0,*45
1506607306.97,46560,19.19,74748.0,10.33,-34.41,-32.97,0,*40
1506607308.26,46561,19.19,74744.5,10.35,-34.01,-32.85,0,*40
1506607309.51,46562,19.19,74748.0,10.35,-33.95,-32.75,0,*46
1506607310.73,46563,19.19,74750.3,10.35,-33.95,-32.57,0,*47
1506607312.01,46564,19.19,74750.3,10.37,-33.43,-32.29,0,*40
1506607313.26,46565,19.19,74746.5,10.39,-33.43,-32.29,0,*4F
1506607314.52,46566,19.19,74750.5,10.39,-33.73,-32.63,0,*41
1506607315.75,46567,19.25,74750.5,10.41,-33.55,-32.39,0,*44
1506607317.0,46568,19.19,74750.3,10.45,-33.43,-32.23,0,*43
1506607318.25,46569,19.19,74750.8,10.45,-33.15,-32.19,0,*48
1506607319.48,46570,19.19,74748.5,10.45,-33.67,-32.57,0,*4F
1506607320.71,46571,19.19,74750.0,10.49,-33.55,-32.51,0,*45
1506607321.99,46572,19.19,74748.8,10.49,-33.89,-32.85,0,*4E
1506607323.27,46573,19.19,74746.5,10.49,-33.77,-33.09,0,*4B
1506607324.5,46574,19.19,74750.0,10.49,-35.29,-34.47,0,*4C
1506607325.71,46575,19.19,74746.3,10.51,-35.77,-34.89,0,*4D
1506607326.98,46576,19.19,74746.3,10.49,-35.07,-34.35,0,*47
1506607328.21,46577,19.19,74748.5,10.49,-35.29,-34.71,0,*4A
1506607329.47,46578,19.19,74748.8,10.49,-35.29,-34.65,0,*40
1506607330.76,46579,19.19,74746.0,10.49,-35.23,-34.65,0,*4B
1506607331.99,46580,19.19,74746.0,10.47,-35.71,-34.95,0,*4B
1506607333.22,46581,19.19,74750.0,10.47,-35.83,-35.17,0,*4C
1506607334.42,46582,19.19,74748.3,10.47,-34.89,-34.25,0,*44
1506607335.65,46583,19.19,74746.0,10.47,-33.95,-33.31,0,*4D
1506607336.91,46584,19.25,74750.8,10.49,-34.47,-33.73,0,*4A
1506607338.19,46585,19.19,74748.3,10.49,-34.19,-33.61,0,*43
1506607339.46,46586,19.19,74750.8,10.49,-34.31,-33.61,0,*4A
1506607340.72,46587,19.19,74746.0,10.49,-34.35,-33.55,0,*48
1506607341.97,46588,19.19,74750.5,10.51,-34.35,-33.73,0,*4A
1506607343.21,46589,19.19,74744.3,10.49,-34.71,-34.13,0,*43
1506607344.44,46590,19.19,74746.8,10.51,-34.65,-34.13,0,*47
1506607345.67,46591,19.25,74750.8,10.53,-34.47,-33.83,0,*4A
1506607346.91,46592,19.19,74748.0,10.51,-34.47,-33.77,0,*40
1506607348.16,46593,19.19,74746.5,10.51,-34.35,-33.73,0,*40
1506607349.41,46594,19.19,74746.5,10.51,-34.35,-33.61,0,*44
1506607350.65,46595,19.25,74750.8,10.53,-34.47,-33.67,0,*44
1506607351.91,46596,19.19,74746.5,10.53,-34.31,-33.67,0,*46
1506607353.16,46597,19.25,74750.3,10.53,-34.31,-33.67,0,*47
1506607354.39,46598,19.19,74744.5,10.53,-34.13,-33.55,0,*49
1506607355.67,46599,19.19,74746.0,10.53,-33.73,-32.97,0,*46
1506607356.95,46600,19.19,74750.3,10.57,-33.43,-32.79,0,*42
1506607358.22,46601,19.19,74746.0,10.57,-33.61,-32.97,0,*43
1506607359.47,46602,19.19,74748.5,10.57,-34.25,-33.77,0,*48
1506607360.72,46603,19.25,74750.5,10.55,-34.35,-33.61,0,*4D
1506607361.95,46604,19.25,74748.8,10.59,-34.13,-33.43,0,*42
1506607363.19,46605,19.25,74750.3,10.59,-34.01,-33.37,0,*43
1506607364.45,46606,19.25,74748.5,10.59,-34.53,-34.01,0,*45
1506607365.68,46607,19.19,74748.5,10.59,-34.35,-33.83,0,*49
1506607366.93,46608,19.19,74744.5,10.59,-34.31,-33.77,0,*49
1506607368.19,46609,19.25,74750.0,10.59,-34.01,-33.43,0,*4C
1506607369.43,46610,19.25,74752.3,10.59,-34.47,-33.77,0,*41
1506607370.67,46611,19.25,74748.3,10.61,-34.25,-33.77,0,*4F
1506607371.93,46612,19.25,74748.5,10.59,-34.53,-34.01,0,*40
1506607373.16,46613,19.19,74746.8,10.59,-34.65,-33.95,0,*4E
1506607374.41,46614,19.19,74746.8,10.61,-33.77,-33.21,0,*49
1506607375.64,46615,19.25,74750.8,10.59,-34.13,-33.73,0,*41
1506607376.91,46616,19.25,74750.3,10.61,-33.89,-33.49,0,*44
1506607378.17,46617,19.25,74748.5,10.61,-34.31,-33.67,0,*4D
1506607379.44,46618,19.19,74746.8,10.61,-34.31,-33.73,0,*47
1506607380.67,46619,19.25,74748.3,10.61,-34.47,-33.95,0,*4F
1506607381.92,46620,19.25,74750.0,10.61,-34.77,-34.31,0,*4F
1506607383.19,46621,19.25,74750.5,10.61,-34.65,-34.31,0,*4D
1506607384.42,46622,19.19,74746.0,10.61,-34.59,-33.95,0,*48
1506607385.69,46623,19.25,74750.3,10.61,-34.31,-33.49,0,*46
1506607386.92,46624,19.19,74746.0,10.59,-34.19,-33.55,0,*4D
1506607388.17,46625,19.25,74748.8,10.61,-33.89,-33.37,0,*4D
1506607389.4,46626,19.25,74744.8,10.63,-33.73,-33.21,0,*4E
1506607390.63,46627,19.25,74746.5,10.63,-34.13,-33.49,0,*40
1506607391.86,46628,19.19,74744.5,10.67,-33.73,-33.15,0,*43
1506607393.09,46629,19.19,74746.0,10.63,-33.67,-32.97,0,*48
1506607394.31,46630,19.25,74746.0,10.67,-33.49,-32.91,0,*4E
1506607395.51,46631,19.25,74746.5,10.67,-33.15,-32.39,0,*44
1506607396.75,46632,19.19,74744.8,10.69,-33.37,-32.75,0,*41
1506607398.0,46633,19.19,74746.8,10.69,-33.43,-32.85,0,*4C
1506607399.23,46634,19.25,74748.0,10.69,-33.95,-33.27,0,*49
1506607400.46,46635,19.25,74748.8,10.71,-33.95,-33.21,0,*47
1506607401.67,46636,19.25,74746.5,10.69,-34.47,-33.67,0,*47
1506607402.92,46637,19.25,74748.5,10.71,-34.31,-33.55,0,*4F
1506607404.13,46638,19.25,74748.0,10.69,-34.13,-33.37,0,*4D
1506607405.36,46639,19.25,74746.8,10.69,-34.47,-33.77,0,*49
1506607406.61,46640,19.25,74748.8,10.69,-34.31,-33.61,0,*41
1506607407.86,46641,19.25,74746.8,10.71,-34.77,-34.19,0,*43
1506607409.12,46642,19.25,74748.0,10.71,-34.53,-33.83,0,*42
1506607410.38,46643,19.19,74744.0,10.71,-34.71,-34.01,0,*4E
1506607411.62,46644,19.25,74744.3,10.69,-34.71,-34.01,0,*40
1506607412.84,46645,19.25,74746.5,10.69,-35.13,-34.35,0,*43
1506607414.1,46646,19.25,74744.8,10.71,-34.77,-34.01,0,*4D
1506607415.33,46647,19.25,74746.3,10.69,-34.47,-33.77,0,*40
1506607416.59,46648,19.25,74748.0,10.71,-34.01,-33.21,0,*47
1506607417.82,46649,19.25,74748.0,10.69,-33.37,-32.75,0,*4D
1506607419.08,46650,19.19,74744.8,10.71,-34.01,-33.21,0,*4E
1506607420.33,46651,19.25,74746.5,10.73,-33.89,-32.85,0,*45
1506607421.57,46652,19.25,74750.5,10.73,-33.89,-32.97,0,*45
1506607422.82,46653,19.19,74744.0,10.75,-33.21,-32.29,0,*45
1506607424.07,46654,19.25,74746.3,10.75,-33.55,-32.63,0,*4F
1506607425.32,46655,19.25,74746.8,10.75,-33.37,-32.45,0,*4E
1506607426.55,46656,19.25,74744.5,10.75,-33.55,-32.51,0,*4C
1506607427.77,46657,19.25,74744.0,10.77,-33.83,-32.97,0,*4E
1506607428.99,46658,19.25,74746.5,10.77,-33.89,-32.91,0,*4D
1506607430.25,46659,19.19,74746.5,10.79,-34.13,-33.27,0,*4A
1506607431.5,46660,19.25,74746.8,10.79,-33.61,-32.69,0,*49
1506607432.77,46661,19.25,74744.0,10.79,-33.61,-32.85,0,*4A
1506607434.02,46662,19.19,74746.0,10.79,-33.43,-32.39,0,*4E
1506607435.28,46663,19.25,74744.5,10.79,-33.03,-31.95,0,*4E
1506607436.49,46664,19.25,74746.3,10.83,-33.15,-32.13,0,*46
1506607437.74,46665,19.19,74746.3,10.83,-33.03,-32.07,0,*45
1506607438.99,46666,19.25,74746.5,10.83,-33.15,-31.95,0,*49
1506607440.22,46667,19.25,74746.5,10.89,-33.21,-32.07,0,*4D
1506607441.44,46668,19.25,74746.3,10.85,-32.97,-31.79,0,*48
1506607442.63,46669,19.25,74750.0,10.89,-32.91,-31.67,0,*4C
1506607443.82,46670,19.25,74746.8,10.89,-32.91,-31.67,0,*44
1506607445.04,46671,19.25,74746.3,10.93,-33.21,-31.95,0,*49
1506607446.29,46672,19.25,74744.5,10.93,-33.27,-31.95,0,*4C
1506607447.54,46673,19.25,74744.5,10.93,-32.85,-31.61,0,*4F
1506607448.8,46674,19.25,74746.3,10.93,-33.27,-31.95,0,*4A
1506607450.02,46675,19.25,74750.0,10.97,-33.37,-32.07,0,*46
1506607451.27,46676,19.25,74748.8,10.97,-33.09,-31.85,0,*41
1506607452.49,46677,19.25,74744.5,10.97,-32.91,-31.73,0,*49
1506607453.76,46678,19.25,74746.5,10.99,-33.61,-32.07,0,*46
1506607455.01,46679,19.25,74746.3,10.99,-33.49,-32.01,0,*4B
1506607456.25,46680,19.25,74748.8,10.99,-33.09,-31.67,0,*4A
1506607457.5,46681,19.25,74744.8,10.99,-33.03,-31.61,0,*47
1506607458.73,46682,19.25,74744.8,11.01,-33.27,-31.79,0,*4B
1506607459.96,46683,19.25,74746.8,11.01,-33.27,-31.67,0,*45
1506607461.19,46684,19.25,74744.8,11.01,-33.31,-31.79,0,*4A
1506607462.42,46685,19.25,74746.0,11.01,-33.31,-31.79,0,*4B
1506607463.66,46686,19.25,74746.5,11.05,-33.21,-31.73,0,*47
1506607464.91,46687,19.25,74746.5,11.05,-33.27,-31.73,0,*40
1506607466.18,46688,19.25,74744.3,11.05,-32.85,-31.23,0,*43
1506607467.41,46689,19.25,74746.5,11.07,-32.91,-31.33,0,*44
1506607468.7,46690,19.19,74744.0,11.07,-32.97,-31.39,0,*40
1506607469.96,46691,19.25,74746.8,11.11,-32.57,-30.95,0,*4D
1506607471.23,46692,19.19,74740.5,11.11,-33.09,-31.45,0,*48
1506607472.5,46693,19.25,74748.8,11.13,-33.09,-31.61,0,*4D
1506607473.76,46694,19.25,74744.8,11.13,-33.49,-31.73,0,*4D
1506607474.99,46695,19.25,74748.3,11.13,-32.97,-31.33,0,*4A
1506607476.26,46696,19.25,74744.3,11.15,-32.69,-31.23,0,*4F
1506607477.55,46697,19.25,74746.5,11.15,-32.63,-30.95,0,*48
1506607478.79,46698,19.25,74744.5,11.17,-33.09,-31.45,0,*44
1506607480.05,46699,19.25,74746.0,11.19,-33.55,-31.95,0,*4F
1506607481.32,46700,19.25,74746.5,11.19,-33.37,-31.73,0,*42
1506607482.56,46701,19.25,74742.8,11.19,-33.37,-31.79,0,*49
1506607483.8,46702,19.25,74746.0,11.19,-33.21,-31.79,0,*4D
1506607485.04,46703,19.25,74748.0,11.19,-33.21,-31.79,0,*4C
1506607486.27,46704,19.25,74744.8,11.21,-32.97,-31.67,0,*43
1506607487.51,46705,19.25,74744.8,11.21,-33.31,-32.01,0,*4C
1506607488.79,46706,19.25,74744.5,11.23,-33.27,-31.85,0,*45
1506607490.02,46707,19.25,74742.3,11.25,-32.91,-31.61,0,*44
1506607491.25,46708,19.25,74742.0,11.25,-33.09,-31.79,0,*42
1506607492.51,46709,19.25,74744.5,11.23,-33.55,-32.29,0,*4A
1506607493.77,46710,19.25,74746.3,11.27,-33.31,-32.23,0,*4E
1506607495.03,46711,19.25,74746.5,11.27,-33.31,-32.13,0,*4C
1506607496.23,46712,19.25,74744.5,11.25,-33.03,-32.01,0,*4F
1506607497.49,46713,19.25,74746.5,11.27,-33.03,-31.91,0,*46
1506607498.69,46714,19.25,74744.5,11.29,-33.21,-32.13,0,*46
1506607499.93,46715,19.25,74746.0,11.29,-33.55,-32.63,0,*43
1506607501.19,46716,19.25,74746.8,11.31,-33.49,-32.57,0,*43
1506607502.47,46717,19.25,74742.0,11.31,-33.43,-32.45,0,*4B
1506607503.71,46718,19.25,74744.8,11.29,-33.49,-32.57,0,*44
1506607504.97,46719,19.25,74744.8,11.31,-33.49,-32.57,0,*4C
1506607506.25,46720,19.25,74746.0,11.31,-33.27,-32.29,0,*47
1506607507.48,46721,19.25,74744.5,11.35,-33.27,-32.57,0,*4B
1506607508.77,46722,19.25,74742.8,11.31,-33.49,-32.63,0,*43
1506607509.98,46723,19.25,74744.0,11.35,-33.21,-32.35,0,*4B
1506607511.21,46724,19.25,74746.0,11.35,-33.21,-32.45,0,*4B
1506607512.44,46725,19.25,74746.8,11.35,-33.37,-32.51,0,*48
1506607513.67,46726,19.25,74746.8,11.37,-33.21,-32.35,0,*4C
1506607514.92,46727,19.25,74746.5,11.37,-33.37,-32.51,0,*48
1506607516.18,46728,19.25,74744.0,11.37,-33.21,-32.45,0,*45
1506607517.45,46729,19.25,74744.8,11.37,-33.27,-32.51,0,*47
1506607518.72,46730,19.25,74746.8,11.39,-33.49,-32.85,0,*40
1506607520.01,46731,19.25,74744.5,11.41,-33.49,-32.79,0,*4D
1506607521.27,46732,19.25,74746.0,11.41,-33.31,-32.69,0,*40
1506607522.53,46733,19.25,74746.3,11.41,-33.73,-33.03,0,*4A
1506607523.79,46734,19.25,74744.8,11.39,-33.61,-32.85,0,*4E
1506607525.08,46735,19.25,74742.3,11.41,-33.49,-32.79,0,*49
1506607526.31,46736,19.25,74744.5,11.39,-33.89,-33.15,0,*42
1506607527.56,46737,19.25,74744.0,11.41,-33.15,-32.29,0,*47
1506607528.81,46738,19.25,74746.5,11.41,-33.15,-32.29,0,*48
1506607530.06,46739,19.25,74742.8,11.41,-32.97,-32.13,0,*4B
1506607531.29,46740,19.25,74746.0,11.45,-33.03,-32.01,0,*4E
1506607532.52,46741,19.25,74746.3,11.45,-32.91,-32.13,0,*46
1506607533.78,46742,19.25,74746.0,11.45,-33.09,-32.13,0,*45
1506607535.03,46743,19.25,74746.8,11.45,-33.21,-32.29,0,*47
1506607536.32,46744,19.25,74746.0,11.45,-33.09,-32.19,0,*49
1506607537.6,46745,19.25,74746.5,11.45,-33.09,-32.19,0,*48
1506607538.85,46746,19.25,74744.0,11.45,-33.43,-32.57,0,*4F
1506607540.08,46747,19.25,74744.0,11.49,-33.21,-32.35,0,*42
1506607541.34,46748,19.25,74744.8,11.47,-33.61,-32.75,0,*43
1506607542.55,46749,19.25,74742.0,11.47,-33.21,-32.35,0,*42
1506607543.79,46750,19.25,74744.0,11.49,-33.37,-32.51,0,*41
1506607545.02,46751,19.25,74744.8,11.49,-33.37,-32.51,0,*40
1506607546.28,46752,19.25,74744.0,11.51,-33.31,-32.63,0,*4D
1506607547.52,46753,19.25,74740.3,11.51,-34.07,-33.27,0,*4F
1506607548.79,46754,19.25,74744.8,11.51,-34.01,-33.27,0,*4E
1506607550.03,46755,19.25,74742.8,11.51,-34.07,-33.09,0,*45
1506607551.26,46756,19.25,74744.3,11.51,-33.55,-32.79,0,*40
1506607552.52,46757,19.25,74744.0,11.53,-33.49,-32.57,0,*42
1506607553.79,46758,19.25,74746.0,11.53,-33.27,-32.29,0,*4C
1506607555.08,46759,19.25,74742.5,11.53,-33.31,-32.45,0,*40
1506607556.33,46760,19.25,74746.0,11.53,-33.27,-32.39,0,*46
1506607557.61,46761,19.25,74744.3,11.53,-33.27,-32.45,0,*4C
1506607558.85,46762,19.25,74744.0,11.53,-33.37,-32.57,0,*4D
1506607560.07,46763,19.25,74746.5,11.57,-33.21,-32.23,0,*4C
1506607561.33,46764,19.25,74746.5,11.57,-33.43,-32.69,0,*41
1506607562.57,46765,19.25,74744.5,11.59,-33.73,-32.69,0,*4D
1506607563.82,46766,19.25,74744.0,11.59,-33.61,-32.79,0,*4C
1506607565.04,46767,19.25,74742.5,11.59,-33.37,-32.51,0,*44
1506607566.27,46768,19.25,74744.5,11.59,-33.27,-32.51,0,*4A
1506607567.48,46769,19.25,74742.0,11.59,-33.55,-32.69,0,*45
1506607568.76,46770,19.25,74740.8,11.61,-33.61,-32.85,0,*43
1506607569.99,46771,19.25,74742.8,11.61,-33.95,-33.15,0,*41
1506607571.24,46772,19.25,74746.5,11.61,-33.21,-32.45,0,*49
1506607572.47,46773,19.25,74746.5,11.65,-32.91,-32.07,0,*40
1506607573.67,46774,19.25,74742.0,11.65,-32.91,-32.13,0,*42
1506607574.93,46775,19.25,74740.3,11.63,-32.97,-32.07,0,*46
1506607576.19,46776,19.25,74740.8,11.65,-33.31,-32.63,0,*4C
1506607577.45,46777,19.25,74742.5,11.67,-33.49,-32.69,0,*4A
1506607578.65,46778,19.25,74740.5,11.65,-33.37,-32.57,0,*43
1506607579.91,46779,19.25,74740.3,11.67,-33.43,-32.57,0,*43
1506607581.14,46780,19.25,74744.0,11.65,-33.43,-32.51,0,*41
1506607582.39,46781,19.25,74742.3,11.67,-33.43,-32.57,0,*44
1506607583.65,46782,19.25,74742.3,11.67,-33.95,-33.09,0,*46
1506607584.91,46783,19.25,74742.3,11.67,-33.27,-32.51,0,*42
1506607586.16,46784,19.25,74742.0,11.69,-33.09,-32.29,0,*48
1506607587.42,46785,19.25,74742.3,11.69,-33.77,-32.85,0,*46
1506607588.68,46786,19.25,74746.5,11.69,-33.77,-32.97,0,*46
1506607589.94,46787,19.25,74740.5,11.69,-33.61,-32.85,0,*43
1506607591.21,46788,19.25,74744.0,11.69,-33.73,-32.79,0,*4C
1506607592.46,46789,19.25,74744.8,11.71,-33.55,-32.63,0,*4B
1506607593.75,46790,19.25,74744.0,11.71,-33.73,-32.97,0,*4C
1506607595.0,46791,19.25,74740.0,11.71,-33.37,-32.51,0,*47
1506607596.23,46792,19.25,74740.0,11.71,-33.95,-33.21,0,*4A
1506607597.46,46793,19.25,74738.5,11.71,-33.95,-33.21,0,*4B
1506607598.69,46794,19.25,74744.3,11.73,-33.55,-32.85,0,*4D
1506607599.93,46795,19.25,74744.0,11.75,-33.67,-32.91,0,*4E
1506607601.17,46796,19.25,74742.0,11.73,-33.67,-32.75,0,*41
1506607602.42,46797,19.25,74746.5,11.75,-33.49,-32.57,0,*4A
1506607603.69,46798,19.25,74742.5,11.75,-33.43,-32.69,0,*42
1506607604.95,46799,19.25,74744.5,11.75,-33.49,-32.69,0,*49
1506607606.18,46800,19.25,74740.0,11.75,-33.15,-32.51,0,*44
1506607607.44,46801,19.25,74742.8,11.79,-33.95,-33.27,0,*41
1506607608.71,46802,19.25,74740.0,11.79,-33.55,-32.79,0,*44
1506607609.97,46803,19.25,74740.3,11.79,-33.37,-32.79,0,*41
1506607611.21,46804,19.25,74740.5,11.79,-33.95,-33.37,0,*45
1506607612.46,46805,19.25,74744.0,11.79,-33.89,-33.21,0,*4E
1506607613.75,46806,19.25,74742.3,11.79,-34.35,-33.77,0,*4E
1506607614.98,46807,19.25,74742.3,11.79,-33.95,-33.37,0,*46
1506607616.22,46808,19.25,74742.0,11.81,-34.07,-33.27,0,*43
1506607617.46,46809,19.25,74742.5,11.79,-33.55,-32.69,0,*4E
1506607618.75,46810,19.25,74740.8,11.79,-33.61,-32.85,0,*43
1506607620.0,46811,19.25,74744.0,11.81,-33.89,-33.27,0,*4A
1506607621.24,46812,19.25,74742.0,11.81,-34.13,-33.43,0,*4F
1506607622.47,46813,19.25,74740.0,11.81,-33.55,-32.79,0,*43
1506607623.7,46814,19.25,74740.5,11.81,-33.77,-32.91,0,*42
1506607624.93,46815,19.25,74742.5,11.81,-33.61,-32.69,0,*43
1506607626.16,46816,19.25,74742.0,11.85,-33.49,-32.57,0,*43
1506607627.45,46817,19.25,74742.0,11.87,-34.35,-33.43,0,*48
1506607628.65,46818,19.25,74742.0,11.85,-33.83,-33.21,0,*4B
1506607629.85,46819,19.25,74740.0,11.85,-33.21,-32.13,0,*42
1506607631.08,46820,19.25,74742.3,11.85,-33.83,-32.97,0,*4C
1506607632.34,46821,19.25,74740.5,11.87,-33.95,-33.27,0,*42
1506607633.61,46822,19.25,74740.8,11.87,-34.59,-33.73,0,*47
1506607634.89,46823,19.25,74738.5,11.87,-34.19,-33.27,0,*43
1506607636.13,46824,19.25,74738.8,11.85,-33.83,-32.85,0,*4B
1506607637.38,46825,19.25,74744.0,11.85,-33.77,-32.97,0,*42
1506607638.66,46826,19.25,74742.3,11.87,-33.61,-32.79,0,*44
1506607639.92,46827,19.25,74742.0,11.87,-33.27,-32.35,0,*4F
1506607641.11,46828,19.25,74738.0,11.89,-33.15,-32.35,0,*4F
1506607642.36,46829,19.25,74738.8,11.91,-32.91,-32.19,0,*44
1506607643.59,46830,19.25,74740.3,11.89,-33.31,-32.39,0,*4C
1506607644.87,46831,19.25,74738.0,11.91,-33.09,-32.29,0,*4E
1506607646.08,46832,19.25,74740.5,11.91,-32.91,-32.13,0,*44
1506607647.34,46833,19.25,74740.5,11.93,-33.49,-32.63,0,*44
1506607648.57,46834,19.25,74738.8,11.93,-33.67,-32.85,0,*47
1506607649.77,46835,19.25,74742.0,11.93,-34.13,-33.15,0,*4A
1506607651.0,46836,19.25,74740.8,11.93,-33.83,-32.97,0,*4C
1506607652.25,46837,19.25,74740.5,11.93,-33.89,-32.85,0,*44
1506607653.5,46838,19.25,74740.3,11.93,-33.49,-32.63,0,*4F
1506607654.79,46839,19.25,74742.3,11.95,-33.73,-32.85,0,*49
1506607656.05,46840,19.25,74742.8,11.95,-34.25,-33.31,0,*4D
1506607657.31,46841,19.25,74740.3,11.95,-34.41,-33.31,0,*4E
1506607658.54,46842,19.25,74740.8,11.95,-34.41,-33.37,0,*4B
1506607659.8,46843,19.25,74740.3,11.95,-34.41,-33.31,0,*4C
1506607661.03,46844,19.25,74742.3,11.93,-34.07,-32.85,0,*41
1506607662.29,46845,19.25,74740.8,11.95,-34.31,-33.21,0,*4C
1506607663.55,46846,19.25,74740.5,11.95,-33.89,-32.69,0,*46
1506607664.81,46847,19.25,74736.5,11.95,-34.07,-32.85,0,*44
1506607666.07,46848,19.25,74740.0,11.95,-33.95,-32.63,0,*4F
1506607667.3,46849,19.25,74742.0,11.95,-33.55,-32.39,0,*4D
1506607668.56,46850,19.25,74742.8,11.97,-34.01,-32.91,0,*43
1506607669.79,46851,19.25,74742.0,11.99,-34.31,-33.03,0,*45
1506607671.05,46852,19.25,74742.3,11.97,-34.35,-33.15,0,*4B
1506607672.28,46853,19.25,74742.5,11.99,-34.35,-33.03,0,*43
1506607673.54,46854,19.25,74740.3,11.99,-34.35,-33.09,0,*4E
1506607674.8,46855,19.25,74740.3,11.97,-35.01,-34.01,0,*48
1506607676.03,46856,19.25,74746.0,11.99,-34.25,-33.09,0,*4D
1506607677.32,46857,19.25,74742.3,11.97,-34.19,-32.75,0,*47
1506607678.58,46858,19.25,74742.0,11.97,-34.59,-33.43,0,*48
1506607679.87,46859,19.25,74742.8,11.97,-34.35,-33.09,0,*4D
1506607681.1,46860,19.25,74742.8,11.97,-33.67,-32.39,0,*45
1506607682.33,46861,19.25,74742.3,11.99,-34.19,-33.03,0,*4C
1506607683.57,46862,19.25,74740.0,11.99,-34.35,-33.21,0,*41
1506607684.8,46863,19.25,74742.5,11.99,-33.77,-32.51,0,*47
1506607686.06,46864,19.25,74740.8,11.99,-33.77,-32.45,0,*45
1506607687.34,46865,19.25,74742.0,12.01,-33.77,-32.45,0,*46
1506607688.63,46866,19.25,74740.8,12.01,-34.95,-33.73,0,*4A
1506607689.88,46867,19.25,74740.3,12.01,-35.41,-34.13,0,*42
1506607691.14,46868,19.25,74742.3,12.01,-36.55,-35.23,0,*49
1506607692.39,46869,19.25,74740.8,11.97,-36.13,-34.71,0,*40
1506607693.63,46870,19.25,74738.3,11.97,-35.89,-34.35,0,*48
1506607694.89,46871,19.25,74740.5,11.97,-35.47,-33.77,0,*4A
1506607696.16,46872,19.25,74740.5,11.95,-35.41,-33.73,0,*49
1506607697.41,46873,19.25,74738.8,11.95,-35.95,-34.41,0,*47